This is the latest recevied weather packets stored in our database for station/object KF6RAL-6. If no packets are shown the sender has not sent any weather packets the latest 10 day(s).
| Time | Temp. | Humidity | Pressure | Rain* | Wind** | Luminosity | Snow |
|---|---|---|---|---|---|---|---|
| 1788476994 | 26.67° C | 31% | 1008.4 hPa | 0 mm | - | - | - |
| 1788476153 | 25.56° C | 27% | 1008.1 hPa | 0 mm | - | - | - |
| 1788475731 | 25.56° C | 36% | 1008.4 hPa | 0 mm | - | - | - |
| 1788475311 | 25.56° C | 39% | 1008.3 hPa | 0 mm | - | - | - |
| 1788474892 | 26.11° C | 32% | 1008.6 hPa | 0 mm | - | - | - |
| 1788474468 | 25.56° C | 37% | 1008.6 hPa | 0 mm | - | - | - |
| 1788474047 | 25.56° C | 35% | 1008.8 hPa | 0 mm | - | - | - |
| 1788473627 | 25.56° C | 35% | 1008.9 hPa | 0 mm | - | - | - |
| 1788473206 | 25.56° C | 33% | 1009 hPa | 0 mm | - | - | - |
| 1788472787 | 25° C | 36% | 1009.1 hPa | 0 mm | - | - | - |
| 1788472363 | 25.56° C | 35% | 1009.3 hPa | 0 mm | - | - | - |
| 1788471942 | 25.56° C | 35% | 1009.3 hPa | 0 mm | - | - | - |
| 1788471521 | 25° C | 23% | 1009.6 hPa | 0 mm | - | - | - |
| 1788471101 | 25° C | 32% | 1009.5 hPa | 0 mm | - | - | - |
| 1788470679 | 24.44° C | 39% | 1009.9 hPa | 0 mm | - | - | - |
| 1788470258 | 24.44° C | 39% | 1010 hPa | 0 mm | - | - | - |
| 1788469837 | 24.44° C | 39% | 1010.1 hPa | 0 mm | - | - | - |
| 1788469416 | 24.44° C | 38% | 1010.3 hPa | 0 mm | - | - | - |
| 1788468996 | 24.44° C | 39% | 1010.5 hPa | 0 mm | - | - | - |
| 1788468575 | 24.44° C | 34% | 1010.5 hPa | 0 mm | - | - | - |
| 1788468154 | 23.89° C | 35% | 1010.7 hPa | 0 mm | - | - | - |
| 1788467732 | 23.89° C | 30% | 1010.9 hPa | 0 mm | - | - | - |
| 1788467311 | 23.89° C | 28% | 1011.1 hPa | 0 mm | - | - | - |
| 1788466890 | 23.89° C | 29% | 1011.1 hPa | 0 mm | - | - | - |
| 1788466469 | 23.33° C | 28% | 1010.7 hPa | 0 mm | - | - | - |
* Rain latest hour (hover to see other rain measurements)
** Current wind speed in m/s (hover to see current wind gust speed)